| time (UTC) | temp F | wind direction | speed knots | gust knots | rain 1hr in | rain 24hr in | rain mn in | humidity % | barometer mb |
| 20260504150712 | 65 | 208 | 3.5 | 5.2 | 0.00 | 0.00 | 0.00 | 59 | 1004.8 |
| 20260504150211 | 65 | 197 | 6.1 | 12.2 | 0.00 | 0.00 | 0.00 | 60 | 1004.8 |
| 20260504141212 | 62 | 205 | 3.5 | 8.7 | 0.00 | 0.00 | 0.00 | 63 | 1005.1 |
| 20260504140712 | 62 | 209 | 6.1 | 8.7 | 0.00 | 0.00 | 0.00 | 63 | 1005.1 |
| 20260504140211 | 62 | 208 | 7.0 | 11.3 | 0.00 | 0.00 | 0.00 | 63 | 1005.3 |
| 20260504130711 | 57 | 201 | 5.2 | 7.8 | 0.00 | 0.00 | 0.00 | 69 | 1005.8 |
| 20260504130211 | 57 | 208 | 2.6 | 5.2 | 0.00 | 0.00 | 0.00 | 69 | 1005.9 |
| 20260504120211 | 52 | 204 | 3.5 | 7.8 | 0.00 | 0.00 | 0.00 | 74 | 1006.1 |
| 20260504110711 | 50 | 197 | 1.7 | 5.2 | 0.00 | 0.00 | 0.00 | 76 | 1005.9 |
| 20260504110211 | 50 | 202 | 5.2 | 7.0 | 0.00 | 0.00 | 0.00 | 76 | 1005.9 |
| 20260504100211 | 50 | 197 | 7.8 | 10.4 | 0.00 | 0.00 | 0.00 | 75 | 1005.8 |
| 20260504081711 | 51 | 183 | 4.3 | 7.8 | 0.00 | 0.00 | 0.00 | 71 | 1006.8 |
| 20260504081211 | 51 | 211 | 3.5 | 5.2 | 0.00 | 0.00 | 0.00 | 71 | 1006.8 |
| 20260504080711 | 51 | 190 | 3.5 | 6.1 | 0.00 | 0.00 | 0.00 | 71 | 1006.8 |
| 20260504080211 | 51 | 206 | 2.6 | 7.0 | 0.00 | 0.00 | 0.00 | 71 | 1006.8 |
| 20260504070211 | 51 | 196 | 7.0 | 11.3 | 0.00 | 0.00 | 0.00 | 69 | 1007.5 |
| 20260504060211 | 52 | 198 | 4.3 | 10.4 | 0.00 | 0.00 | 0.00 | 67 | 1008.2 |
| 20260504050711 | 52 | 184 | 9.6 | 15.6 | 0.00 | 0.00 | 0.00 | 68 | 1008.9 |
| 20260504050211 | 52 | 183 | 4.3 | 10.4 | 0.00 | 0.00 | 0.00 | 69 | 1009.0 |
| 20260504045710 | 52 | 173 | 7.0 | 13.0 | 0.00 | 0.00 | 0.00 | 69 | 1009.0 |
| 20260504045211 | 52 | 182 | 3.5 | 7.8 | 0.00 | 0.00 | 0.00 | 69 | 1009.0 |
| 20260504044711 | 52 | 170 | 3.5 | 5.2 | 0.00 | 0.00 | 0.00 | 69 | 1009.0 |
| 20260504044211 | 52 | 206 | 3.5 | 7.8 | 0.00 | 0.00 | 0.00 | 69 | 1009.0 |
| 20260504043710 | 52 | 195 | 2.6 | 7.0 | 0.00 | 0.00 | 0.00 | 69 | 1009.1 |
| 20260504043210 | 51 | 189 | 5.2 | 9.6 | 0.00 | 0.00 | 0.00 | 70 | 1009.2 |
| 20260504042711 | 51 | 187 | 6.1 | 9.6 | 0.00 | 0.00 | 0.00 | 70 | 1009.3 |
| 20260504042231 | 51 | 185 | 3.5 | 7.0 | 0.00 | 0.00 | 0.00 | 70 | 1009.2 |
| 20260504041711 | 52 | 176 | 5.2 | 7.0 | 0.00 | 0.00 | 0.00 | 69 | 1009.3 |
| 20260504041231 | 51 | 205 | 3.5 | 9.6 | 0.00 | 0.00 | 0.00 | 69 | 1009.4 |
| 20260504040710 | 51 | 191 | 2.6 | 11.3 | 0.00 | 0.00 | 0.00 | 69 | 1009.3 |
| 20260504040211 | 51 | 187 | 3.5 | 11.3 | 0.00 | 0.00 | 0.00 | 69 | 1009.4 |
| 20260504035711 | 51 | 190 | 6.1 | 10.4 | 0.00 | 0.00 | 0.00 | 69 | 1009.4 |
| 20260504035211 | 52 | 186 | 2.6 | 7.8 | 0.00 | 0.00 | 0.00 | 69 | 1009.6 |
| 20260504034731 | 52 | 168 | 4.3 | 8.7 | 0.00 | 0.00 | 0.00 | 69 | 1009.6 |
| 20260504034211 | 52 | 177 | 7.0 | 10.4 | 0.00 | 0.00 | 0.00 | 68 | 1009.6 |
| 20260504033711 | 52 | 188 | 6.1 | 9.6 | 0.00 | 0.00 | 0.00 | 69 | 1009.7 |
| 20260504033231 | 52 | 185 | 3.5 | 12.2 | 0.00 | 0.00 | 0.00 | 69 | 1009.7 |
| 20260504032711 | 51 | 191 | 4.3 | 7.0 | 0.00 | 0.00 | 0.00 | 69 | 1009.7 |
| 20260504032211 | 51 | 194 | 4.3 | 9.6 | 0.00 | 0.00 | 0.00 | 69 | 1009.7 |
| 20260504031731 | 51 | 176 | 5.2 | 9.6 | 0.00 | 0.00 | 0.00 | 70 | 1009.8 |
| 20260504031211 | 51 | 192 | 5.2 | 7.8 | 0.00 | 0.00 | 0.00 | 70 | 1009.9 |
| 20260504030711 | 51 | 188 | 5.2 | 7.8 | 0.00 | 0.00 | 0.00 | 70 | 1009.9 |
| 20260504030231 | 51 | 209 | 5.2 | 7.8 | 0.00 | 0.00 | 0.00 | 70 | 1009.9 |
| 20260504025711 | 51 | 187 | 2.6 | 8.7 | 0.00 | 0.00 | 0.00 | 70 | 1010.0 |
| 20260504025211 | 51 | 191 | 3.5 | 7.8 | 0.00 | 0.00 | 0.00 | 70 | 1010.0 |
| 20260504024751 | 51 | 189 | 4.3 | 12.2 | 0.00 | 0.00 | 0.00 | 70 | 1010.0 |
| 20260504024211 | 51 | 176 | 5.2 | 12.2 | 0.00 | 0.00 | 0.00 | 71 | 1010.1 |
| 20260504023711 | 51 | 187 | 2.6 | 10.4 | 0.00 | 0.00 | 0.00 | 71 | 1010.2 |
| 20260504023210 | 51 | 176 | 7.0 | 11.3 | 0.00 | 0.00 | 0.00 | 71 | 1010.2 |
| 20260504022710 | 51 | 198 | 3.5 | 9.6 | 0.00 | 0.00 | 0.00 | 71 | 1010.2 |
| 20260504022211 | 51 | 189 | 4.3 | 7.8 | 0.00 | 0.00 | 0.00 | 71 | 1010.1 |
| 20260504021711 | 51 | 189 | 6.1 | 9.6 | 0.00 | 0.00 | 0.00 | 72 | 1010.2 |
| 20260504021351 | 51 | 194 | 2.6 | 6.1 | 0.00 | 0.00 | 0.00 | 72 | 1010.1 |
| 20260504020710 | 51 | 192 | 4.3 | 7.0 | 0.00 | 0.00 | 0.00 | 72 | 1010.2 |
| 20260504020211 | 51 | 190 | 0.9 | 9.6 | 0.00 | 0.00 | 0.00 | 72 | 1010.2 |
| 20260504015711 | 51 | 191 | 3.5 | 7.0 | 0.00 | 0.00 | 0.00 | 72 | 1010.2 |
| 20260504015210 | 52 | 189 | 3.5 | 6.1 | 0.00 | 0.00 | 0.00 | 72 | 1010.2 |
| 20260504014711 | 52 | 186 | 3.5 | 6.1 | 0.00 | 0.00 | 0.00 | 71 | 1010.2 |
| 20260504014210 | 52 | 184 | 3.5 | 7.0 | 0.00 | 0.00 | 0.00 | 71 | 1010.2 |
| 20260504013711 | 52 | 184 | 7.0 | 10.4 | 0.00 | 0.00 | 0.00 | 71 | 1010.2 |
| 20260504013210 | 52 | 191 | 2.6 | 7.0 | 0.00 | 0.00 | 0.00 | 71 | 1010.1 |
| 20260504012711 | 52 | 185 | 6.1 | 8.7 | 0.00 | 0.00 | 0.00 | 71 | 1010.2 |
| 20260504012211 | 52 | 183 | 5.2 | 8.7 | 0.00 | 0.00 | 0.00 | 71 | 1010.1 |
| 20260504011710 | 52 | 187 | 3.5 | 5.2 | 0.00 | 0.00 | 0.00 | 71 | 1010.2 |
| 20260504011211 | 52 | 183 | 2.6 | 8.7 | 0.00 | 0.00 | 0.00 | 71 | 1010.2 |
| 20260504010711 | 52 | 193 | 3.5 | 6.1 | 0.00 | 0.00 | 0.00 | 71 | 1010.3 |
| 20260504010210 | 52 | 188 | 3.5 | 6.1 | 0.00 | 0.00 | 0.00 | 70 | 1010.1 |
| 20260504005711 | 52 | 192 | 4.3 | 7.0 | 0.00 | 0.00 | 0.00 | 70 | 1010.2 |
| 20260504005211 | 52 | 200 | 5.2 | 7.0 | 0.00 | 0.00 | 0.00 | 70 | 1010.2 |
| 20260504004711 | 53 | 191 | 1.7 | 3.5 | 0.00 | 0.00 | 0.00 | 69 | 1010.2 |
| 20260504004210 | 53 | 169 | 3.5 | 7.8 | 0.00 | 0.00 | 0.00 | 69 | 1010.2 |
| 20260504003710 | 53 | 193 | 3.5 | 7.0 | 0.00 | 0.00 | 0.00 | 69 | 1010.2 |
| 20260504003210 | 53 | 185 | 3.5 | 8.7 | 0.00 | 0.00 | 0.00 | 68 | 1010.2 |
| 20260504002711 | 53 | 174 | 3.5 | 6.1 | 0.00 | 0.00 | 0.00 | 67 | 1010.2 |
| 20260504002231 | 53 | 168 | 1.7 | 6.1 | 0.00 | 0.00 | 0.00 | 66 | 1010.2 |
| 20260504001710 | 53 | 202 | 4.3 | 9.6 | 0.00 | 0.00 | 0.00 | 66 | 1010.2 |
| 20260504001210 | 53 | 174 | 1.7 | 5.2 | 0.00 | 0.00 | 0.00 | 65 | 1010.4 |
| 20260504000711 | 53 | 212 | 3.5 | 7.0 | 0.00 | 0.00 | 0.00 | 65 | 1010.4 |
| 20260504000211 | 53 | 221 | 5.2 | 7.0 | 0.00 | 0.00 | 0.00 | 65 | 1010.4 |
| 20260503235710 | 54 | 213 | 1.7 | 5.2 | 0.00 | 0.00 | 0.00 | 65 | 1010.3 |
| 20260503235210 | 54 | 186 | 4.3 | 8.7 | 0.00 | 0.00 | 0.00 | 64 | 1010.5 |
| 20260503234751 | 54 | 179 | 2.6 | 7.0 | 0.00 | 0.00 | 0.00 | 64 | 1010.4 |
| 20260503234211 | 54 | 204 | 7.8 | 13.0 | 0.00 | 0.00 | 0.00 | 63 | 1010.5 |
| 20260503233711 | 54 | 198 | 3.5 | 8.7 | 0.00 | 0.00 | 0.00 | 64 | 1010.6 |
| 20260503233231 | 54 | 229 | 6.1 | 11.3 | 0.00 | 0.00 | 0.00 | 63 | 1010.6 |
| 20260503232710 | 54 | 225 | 6.1 | 12.2 | 0.00 | 0.00 | 0.00 | 63 | 1010.6 |
| 20260503232210 | 54 | 216 | 8.7 | 13.0 | 0.00 | 0.00 | 0.00 | 63 | 1010.6 |
| 20260503231710 | 55 | 199 | 5.2 | 16.5 | 0.00 | 0.00 | 0.00 | 61 | 1010.7 |
| 20260503231210 | 55 | 197 | 7.8 | 16.5 | 0.00 | 0.00 | 0.00 | 62 | 1010.6 |
| 20260503230710 | 55 | 229 | 8.7 | 11.3 | 0.00 | 0.00 | 0.00 | 61 | 1010.6 |
| 20260503230210 | 56 | 211 | 7.8 | 14.8 | 0.00 | 0.00 | 0.00 | 60 | 1010.7 |
| 20260503225710 | 56 | 228 | 8.7 | 15.6 | 0.00 | 0.00 | 0.00 | 60 | 1010.5 |
| 20260503225210 | 57 | 246 | 9.6 | 13.0 | 0.00 | 0.00 | 0.00 | 60 | 1010.6 |
| 20260503224710 | 57 | 233 | 7.0 | 11.3 | 0.00 | 0.00 | 0.00 | 59 | 1010.5 |
| 20260503224210 | 58 | 220 | 7.8 | 13.9 | 0.00 | 0.00 | 0.00 | 57 | 1010.5 |
| 20260503223710 | 58 | 209 | 11.3 | 19.1 | 0.00 | 0.00 | 0.00 | 56 | 1010.5 |
| 20260503223210 | 58 | 242 | 7.0 | 11.3 | 0.00 | 0.00 | 0.00 | 55 | 1010.5 |
| 20260503222731 | 59 | 223 | 10.4 | 19.1 | 0.00 | 0.00 | 0.00 | 54 | 1010.4 |
| 20260503222210 | 59 | 228 | 7.0 | 16.5 | 0.00 | 0.00 | 0.00 | 52 | 1010.5 |
| 20260503221811 | 60 | 221 | 11.3 | 19.1 | 0.00 | 0.00 | 0.00 | 51 | 1010.4 |
| 20260503221230 | 60 | 213 | 11.3 | 24.3 | 0.00 | 0.00 | 0.00 | 48 | 1010.3 |
| 20260503220710 | 61 | 207 | 11.3 | 18.2 | 0.00 | 0.00 | 0.00 | 46 | 1010.3 |
| 20260503220210 | 61 | 203 | 7.0 | 17.4 | 0.00 | 0.00 | 0.00 | 45 | 1010.2 |
| 20260503215710 | 61 | 205 | 7.8 | 11.3 | 0.00 | 0.00 | 0.00 | 45 | 1010.0 |
| 20260503215212 | 61 | 194 | 11.3 | 25.2 | 0.00 | 0.00 | 0.00 | 44 | 1010.1 |
| 20260503214712 | 61 | 207 | 13.0 | 20.9 | 0.00 | 0.00 | 0.00 | 44 | 1010.1 |
| 20260503214212 | 61 | 231 | 11.3 | 18.2 | 0.00 | 0.00 | 0.00 | 44 | 1010.1 |
| 20260503213712 | 61 | 217 | 12.2 | 20.0 | 0.00 | 0.00 | 0.00 | 44 | 1010.2 |
| 20260503213212 | 61 | 199 | 10.4 | 17.4 | 0.00 | 0.00 | 0.00 | 44 | 1010.2 |
| 20260503212712 | 62 | 221 | 11.3 | 20.0 | 0.00 | 0.00 | 0.00 | 44 | 1010.2 |
| 20260503212212 | 62 | 198 | 15.6 | 27.8 | 0.00 | 0.00 | 0.00 | 43 | 1010.2 |
| 20260503211712 | 62 | 234 | 7.0 | 14.8 | 0.00 | 0.00 | 0.00 | 44 | 1010.2 |
| 20260503211232 | 62 | 228 | 9.6 | 15.6 | 0.00 | 0.00 | 0.00 | 44 | 1010.3 |
| 20260503210712 | 61 | 227 | 7.8 | 14.8 | 0.00 | 0.00 | 0.00 | 44 | 1010.2 |
| 20260503210212 | 61 | 195 | 10.4 | 17.4 | 0.00 | 0.00 | 0.00 | 43 | 1010.1 |
| 20260503205712 | 61 | 191 | 8.7 | 16.5 | 0.00 | 0.00 | 0.00 | 42 | 1010.2 |
| 20260503205212 | 62 | 226 | 4.3 | 16.5 | 0.00 | 0.00 | 0.00 | 41 | 1010.4 |
| 20260503204732 | 62 | 208 | 14.8 | 23.5 | 0.00 | 0.00 | 0.00 | 41 | 1010.5 |
| 20260503204212 | 62 | 209 | 9.6 | 15.6 | 0.00 | 0.00 | 0.00 | 40 | 1010.4 |
| 20260503203712 | 62 | 188 | 9.6 | 18.2 | 0.00 | 0.00 | 0.00 | 40 | 1010.5 |
| 20260503203212 | 63 | 210 | 8.7 | 24.3 | 0.00 | 0.00 | 0.00 | 39 | 1010.6 |
| 20260503202712 | 63 | 219 | 11.3 | 22.6 | 0.00 | 0.00 | 0.00 | 40 | 1010.7 |
| 20260503202212 | 63 | 231 | 9.6 | 13.9 | 0.00 | 0.00 | 0.00 | 39 | 1010.6 |
| 20260503201712 | 63 | 204 | 9.6 | 18.2 | 0.00 | 0.00 | 0.00 | 38 | 1010.7 |
| 20260503201212 | 64 | 236 | 10.4 | 16.5 | 0.00 | 0.00 | 0.00 | 40 | 1010.8 |
| 20260503200712 | 63 | 216 | 6.1 | 17.4 | 0.00 | 0.00 | 0.00 | 41 | 1010.9 |
| 20260503200212 | 63 | 193 | 6.1 | 12.2 | 0.00 | 0.00 | 0.00 | 40 | 1010.9 |
| 20260503195712 | 63 | 212 | 8.7 | 16.5 | 0.00 | 0.00 | 0.00 | 39 | 1011.0 |
| 20260503195212 | 63 | 194 | 6.1 | 14.8 | 0.00 | 0.00 | 0.00 | 40 | 1011.0 |
| 20260503194712 | 63 | 229 | 10.4 | 18.2 | 0.00 | 0.00 | 0.00 | 38 | 1011.1 |
| 20260503194212 | 63 | 195 | 10.4 | 20.0 | 0.00 | 0.00 | 0.00 | 41 | 1011.0 |
| 20260503193712 | 63 | 195 | 10.4 | 18.2 | 0.00 | 0.00 | 0.00 | 39 | 1011.1 |
| 20260503193212 | 62 | 179 | 7.8 | 16.5 | 0.00 | 0.00 | 0.00 | 39 | 1011.2 |
| 20260503192712 | 62 | 231 | 11.3 | 17.4 | 0.00 | 0.00 | 0.00 | 39 | 1011.2 |
| 20260503192212 | 63 | 207 | 10.4 | 18.2 | 0.00 | 0.00 | 0.00 | 39 | 1011.2 |
| 20260503191712 | 63 | 218 | 10.4 | 17.4 | 0.00 | 0.00 | 0.00 | 40 | 1011.3 |
| 20260503191212 | 63 | 217 | 10.4 | 16.5 | 0.00 | 0.00 | 0.00 | 41 | 1011.3 |
| 20260503190712 | 62 | 182 | 10.4 | 19.1 | 0.00 | 0.00 | 0.00 | 39 | 1011.5 |
| 20260503190212 | 63 | 202 | 10.4 | 27.8 | 0.00 | 0.00 | 0.00 | 39 | 1011.6 |
| 20260503185712 | 63 | 191 | 8.7 | 14.8 | 0.00 | 0.00 | 0.00 | 39 | 1011.5 |
| 20260503185212 | 62 | 200 | 8.7 | 16.5 | 0.00 | 0.00 | 0.00 | 40 | 1011.7 |
| 20260503184732 | 62 | 211 | 8.7 | 15.6 | 0.00 | 0.00 | 0.00 | 40 | 1011.8 |
| 20260503184212 | 62 | 228 | 13.0 | 20.0 | 0.00 | 0.00 | 0.00 | 40 | 1012.0 |
| 20260503183732 | 63 | 246 | 7.8 | 13.0 | 0.00 | 0.00 | 0.00 | 39 | 1012.0 |
| 20260503183232 | 63 | 199 | 9.6 | 19.1 | 0.00 | 0.00 | 0.00 | 40 | 1012.1 |
| 20260503182712 | 63 | 216 | 10.4 | 20.9 | 0.00 | 0.00 | 0.00 | 41 | 1012.2 |
| 20260503182212 | 63 | 186 | 11.3 | 18.2 | 0.00 | 0.00 | 0.00 | 39 | 1012.2 |
| 20260503181732 | 63 | 241 | 9.6 | 18.2 | 0.00 | 0.00 | 0.00 | 39 | 1012.1 |
| 20260503181212 | 63 | 194 | 7.0 | 13.0 | 0.00 | 0.00 | 0.00 | 41 | 1012.2 |
| 20260503180712 | 63 | 201 | 7.0 | 13.0 | 0.00 | 0.00 | 0.00 | 41 | 1012.3 |
| 20260503180257 | 63 | 237 | 7.8 | 13.9 | 0.00 | 0.00 | 0.00 | 43 | 1012.3 |
| 20260503175712 | 62 | 246 | 7.0 | 13.9 | 0.00 | 0.00 | 0.00 | 41 | 1012.5 |
| 20260503175212 | 62 | 200 | 7.8 | 17.4 | 0.00 | 0.00 | 0.00 | 39 | 1012.5 |
| 20260503174712 | 62 | 209 | 8.7 | 15.6 | 0.00 | 0.00 | 0.00 | 41 | 1012.5 |
| 20260503174212 | 62 | 203 | 8.7 | 15.6 | 0.00 | 0.00 | 0.00 | 40 | 1012.6 |
| 20260503173712 | 62 | 224 | 13.0 | 19.1 | 0.00 | 0.00 | 0.00 | 42 | 1012.8 |
| 20260503173212 | 62 | 229 | 7.0 | 13.0 | 0.00 | 0.00 | 0.00 | 43 | 1012.8 |
| 20260503172712 | 61 | 246 | 9.6 | 13.9 | 0.00 | 0.00 | 0.00 | 41 | 1012.8 |
| 20260503172212 | 61 | 238 | 10.4 | 18.2 | 0.00 | 0.00 | 0.00 | 41 | 1012.9 |
| 20260503171712 | 60 | 239 | 7.8 | 17.4 | 0.00 | 0.00 | 0.00 | 39 | 1012.9 |
| 20260503171212 | 61 | 224 | 12.2 | 25.2 | 0.00 | 0.00 | 0.00 | 40 | 1013.2 |
| 20260503170712 | 61 | 179 | 4.3 | 21.7 | 0.00 | 0.00 | 0.00 | 41 | 1013.0 |
| 20260503170212 | 61 | 210 | 10.4 | 21.7 | 0.00 | 0.00 | 0.00 | 42 | 1013.2 |
| 20260503160211 | 61 | 208 | 9.6 | 16.5 | 0.00 | 0.00 | 0.00 | 45 | 1013.9 |